Phuket, Thailand

7:38 AM ICT on September 29, 2016 (GMT +0700)
Phuket International

Weather History for VTSP - March, 2013

Change the Weather History Date:

Sunday, March 31, 2013

  Actual Average Record
Temperature  
Mean Temperature 86 °F -  
Max Temperature 93 °F 92 °F 98 °F (1998)
Min Temperature 78 °F 77 °F 71 °F (2011)
Cooling Degree Days 20    
Growing Degree Days 36 (Base 50)    
Moisture  
Dew Point 77 °F    
Average Humidity 72    
Maximum Humidity 94    
Minimum Humidity 57    
Precipitation  
Precipitation 0.00 in - - ()
Sea Level Pressure  
Sea Level Pressure 29.78 in    
Wind  
Wind Speed 5 mph ()    
Max Wind Speed 13 mph    
Max Gust Speed -    
Visibility 4.1 miles    
Events      
Averages and records for this station are not official NWS values.
T = Trace of Precipitation, MM = Missing Value Source: Averaged Metar Reports

Daily Weather History Graph

Daily Weather History Graph

Search for Another Location

Airport or City:

Trip Planner

Search our weather history database for the weather conditions in past years. The results will help you decide how hot, cold, wet, or windy it might be!

Date:

Astronomy

Mar. 31, 2013 Rise Set
Actual Time 6:25 AM ICT 6:36 PM ICT
Civil Twilight 6:04 AM ICT 6:57 PM ICT
Nautical Twilight 5:39 AM ICT 7:21 PM ICT
Astronomical Twilight 5:15 AM ICT 7:46 PM ICT
Moon 10:25 PM ICT (3/31) 9:30 AM ICT (3/31)
Length of Visible Light 12h 53m
Length of Day
12h 11m
Waning Gibbous, 82% of the Moon is Illuminated
Mar 31
Waning Gibbous
Apr 3
Last Quarter
Apr 10
New
Apr 18
First Quarter
Apr 26
Full

Hourly Weather History & Observations

Time (ICT) Temp. Heat Index Dew Point Humidity Pressure Visibility Wind Dir Wind Speed Gust Speed Precip Events Conditions
12:00 AM 84.2 °F 94.1 °F 77.0 °F 79% 29.80 in 4.3 mi West 5.8 mph - N/A   Mostly Cloudy
12:30 AM 84.2 °F 94.1 °F 77.0 °F 79% 29.80 in 4.3 mi WNW 4.6 mph - N/A   Mostly Cloudy
1:00 AM 82 °F - 78 °F 85% 29.76 in 4 mi Calm Calm - -   Mist
6:00 AM 78.8 °F - 75.2 °F 89% 29.80 in 4.3 mi Calm Calm - N/A   Mostly Cloudy
6:30 AM 78.8 °F - 75.2 °F 89% 29.80 in 3.1 mi Calm Calm - N/A   Mostly Cloudy
7:00 AM 80 °F - 77 °F 87% 29.78 in 3 mi Calm Calm - -   Mist
7:00 AM 78.8 °F - 77.0 °F 94% 29.80 in 3.1 mi Calm Calm - N/A   Mostly Cloudy
7:30 AM 82.4 °F 90.9 °F 77.0 °F 84% 29.80 in 3.1 mi Variable 2.3 mph - N/A   Mostly Cloudy
8:00 AM 86.0 °F 96.9 °F 77.0 °F 74% 29.83 in 3.1 mi NE 3.5 mph - N/A   Mostly Cloudy
8:30 AM 86.0 °F 95.1 °F 75.2 °F 70% 29.83 in 4.3 mi ENE 5.8 mph - N/A   Mostly Cloudy
9:00 AM 87.8 °F 97.6 °F 75.2 °F 66% 29.83 in 4.3 mi NE 5.8 mph - N/A   Mostly Cloudy
9:30 AM 89.6 °F 98.2 °F 73.4 °F 59% 29.86 in 4.3 mi ENE 6.9 mph - N/A   Mostly Cloudy
10:00 AM 89.6 °F 102.2 °F 77.0 °F 66% 29.83 in 4.3 mi ENE 4.6 mph - N/A   Mostly Cloudy
10:30 AM 87.8 °F 99.7 °F 77.0 °F 70% 29.83 in 4.3 mi WNW 4.6 mph - N/A   Mostly Cloudy
11:00 AM 91.4 °F 105.1 °F 77.0 °F 63% 29.83 in 4.3 mi Variable 3.5 mph - N/A   Mostly Cloudy
11:30 AM 91.4 °F 105.1 °F 77.0 °F 63% 29.83 in 4.3 mi Variable 4.6 mph - N/A   Mostly Cloudy
12:00 PM 91.4 °F 105.1 °F 77.0 °F 63% 29.80 in 4.3 mi Variable 4.6 mph - N/A   Mostly Cloudy
12:30 PM 93.2 °F 107.2 °F 77.0 °F 59% 29.80 in 4.3 mi Variable 5.8 mph - N/A   Mostly Cloudy
1:00 PM 92 °F - 79 °F 57% 29.78 in 4 mi WNW 5.8 mph - -   Mist
1:00 PM 91.4 °F 105.1 °F 77.0 °F 63% 29.77 in 4.3 mi Variable 4.6 mph - N/A   Mostly Cloudy
1:30 PM 91.4 °F 102.5 °F 75.2 °F 59% 29.77 in 4.3 mi West 10.4 mph - N/A   Mostly Cloudy
2:00 PM 91.4 °F 102.5 °F 75.2 °F 59% 29.77 in 4.3 mi West 9.2 mph - N/A   Mostly Cloudy
2:30 PM 91.4 °F 102.5 °F 75.2 °F 59% 29.74 in 4.3 mi West 10.4 mph - N/A   Mostly Cloudy
3:00 PM 91.4 °F 102.5 °F 75.2 °F 59% 29.74 in 4.3 mi West 9.2 mph - N/A   Mostly Cloudy
3:30 PM 91.4 °F 102.5 °F 75.2 °F 59% 29.71 in 4.3 mi West 11.5 mph - N/A   Mostly Cloudy
4:00 PM 91.4 °F 105.1 °F 77.0 °F 63% 29.71 in 4.3 mi West 12.7 mph - N/A   Mostly Cloudy
4:30 PM 89.6 °F 102.2 °F 77.0 °F 66% 29.71 in 4.3 mi West 12.7 mph - N/A   Mostly Cloudy
5:00 PM 89.6 °F 104.7 °F 78.8 °F 70% 29.71 in 4.3 mi West 12.7 mph - N/A   Mostly Cloudy
5:30 PM 87.8 °F 102.5 °F 78.8 °F 75% 29.71 in 4.3 mi West 11.5 mph - N/A   Mostly Cloudy
6:00 PM 87.8 °F 99.7 °F 77.0 °F 70% 29.74 in 4.3 mi West 11.5 mph - N/A   Mostly Cloudy
6:30 PM 86.0 °F 96.9 °F 77.0 °F 74% 29.74 in 4.3 mi WNW 10.4 mph - N/A   Mostly Cloudy
7:00 PM 87 °F - 79 °F 72% 29.71 in 4 mi West 5.8 mph - -   Mist
7:00 PM 86.0 °F 96.9 °F 77.0 °F 74% 29.74 in 4.3 mi WNW 8.1 mph - N/A   Mostly Cloudy
7:30 PM 86.0 °F 96.9 °F 77.0 °F 74% 29.77 in 4.3 mi WNW 6.9 mph - N/A   Mostly Cloudy
8:00 PM 86.0 °F 96.9 °F 77.0 °F 74% 29.77 in 4.3 mi WNW 6.9 mph - N/A   Mostly Cloudy
8:30 PM 86.0 °F 96.9 °F 77.0 °F 74% 29.77 in 4.3 mi WNW 6.9 mph - N/A   Mostly Cloudy
9:00 PM 86.0 °F 96.9 °F 77.0 °F 74% 29.80 in 4.3 mi WNW 5.8 mph - N/A   Mostly Cloudy
9:30 PM 86.0 °F 99.3 °F 78.8 °F 79% 29.80 in 4.3 mi WNW 5.8 mph - N/A   Mostly Cloudy
10:00 PM 86.0 °F 96.9 °F 77.0 °F 74% 29.83 in 4.3 mi NW 5.8 mph - N/A   Mostly Cloudy
10:30 PM 86.0 °F 99.3 °F 78.8 °F 79% 29.83 in 4.3 mi WNW 4.6 mph - N/A   Mostly Cloudy
11:00 PM 84.2 °F 96.1 °F 78.8 °F 84% 29.83 in 4.3 mi WNW 4.6 mph - N/A   Mostly Cloudy
11:30 PM 84.2 °F 94.1 °F 77.0 °F 79% 29.83 in 4.3 mi WNW 4.6 mph - N/A   Mostly Cloudy